This is the latest recevied weather packets stored in our database for station/object ac2ev. If no packets are shown the sender has not sent any weather packets the latest 10 day(s).
| Time | Temp. | Humidity | Pressure | Rain* | Wind** | Luminosity | Snow |
|---|---|---|---|---|---|---|---|
| 1788112983 | 18.89° C | 90% | 1018.8 hPa | 0.51 mm | - | - | - |
| 1788112683 | 18.89° C | 90% | 1018.8 hPa | 0.51 mm | - | - | - |
| 1788112383 | 18.89° C | 90% | 1018.8 hPa | 0.76 mm | - | - | - |
| 1788112083 | 18.89° C | 90% | 1018.8 hPa | 1.02 mm | - | - | - |
| 1788111783 | 18.89° C | 90% | 1018.7 hPa | 1.52 mm | - | - | - |
| 1788111483 | 18.89° C | 90% | 1018.8 hPa | 1.52 mm | - | - | - |
| 1788111183 | 18.89° C | 90% | 1018.8 hPa | 1.78 mm | - | - | - |
| 1788110883 | 18.89° C | 90% | 1018.8 hPa | 1.78 mm | - | - | - |
| 1788110582 | 18.89° C | 90% | 1018.9 hPa | 1.78 mm | - | - | - |
| 1788110284 | 18.89° C | 90% | 1018.9 hPa | 1.52 mm | - | - | - |
| 1788109983 | 18.89° C | 90% | 1018.9 hPa | 1.52 mm | - | - | - |
| 1788109683 | 18.89° C | 90% | 1018.9 hPa | 1.52 mm | - | - | - |
| 1788109382 | 18.89° C | 90% | 1019 hPa | 1.27 mm | - | - | - |
| 1788109082 | 18.89° C | 90% | 1019 hPa | 1.27 mm | - | - | - |
| 1788108782 | 18.89° C | 90% | 1019.2 hPa | 1.02 mm | - | - | - |
| 1788108482 | 18.89° C | 90% | 1019.2 hPa | 0.76 mm | - | - | - |
| 1788108183 | 18.89° C | 90% | 1019.2 hPa | 0.25 mm | - | - | - |
| 1788107883 | 18.89° C | 90% | 1019.1 hPa | 0.51 mm | - | - | - |
| 1788107582 | 18.89° C | 90% | 1019 hPa | 0.25 mm | - | - | - |
| 1788107283 | 18.89° C | 89% | 1019 hPa | 0.25 mm | - | - | - |
| 1788106982 | 18.89° C | 89% | 1019 hPa | 0.25 mm | - | - | - |
| 1788106683 | 18.89° C | 88% | 1019 hPa | 0.25 mm | - | - | - |
| 1788106381 | 18.89° C | 88% | 1018.9 hPa | 0.25 mm | - | - | - |
| 1788106075 | 18.89° C | 88% | 1018.9 hPa | 0.25 mm | - | - | - |
| 1788105769 | 18.89° C | 88% | 1018.8 hPa | 0.25 mm | - | - | - |
* Rain latest hour (hover to see other rain measurements)
** Current wind speed in m/s (hover to see current wind gust speed)